Location: Newark
(16.3678°N, 77.8722°E)
Time: 04:32:50
(UTC+00:00)

S-56A Canister/Altair - Pass Details

Date: 17 December 2019
Orbit: 634 x 2498 km, 38.9° (Epoch: 24 January)

Event Time Altitude Azimuth Distance (km) Brightness Sun altitude
Rises 08:29:24 0° 310° (NW) 6,154 12.1 42.7°
Reaches altitude 10° 08:33:39 10° 314° (NW) 5,160 11.8 42.1°
Maximum altitude 08:48:16 55° 29° (NNE) 2,602 10.3 40.1°
Drops below altitude 10° 08:59:42 10° 105° (ESE) 4,130 11.1 38.3°
Sets 09:02:40 0° 109° (ESE) 4,892 11.5 37.9°
